Location: Newark
(45.5000°N, 11.4167°E)
Time: 22:24:43
(UTC+00:00)

Explorer 11/Cluster Stage 4 - Pass Details

Date: 19 August 2019
Orbit: 467 x 1260 km, 28.8° (Epoch: 20 September)

Event Time Altitude Azimuth Distance (km) Brightness Sun altitude
Rises 13:56:15 0° 245° (WSW) 4,030 11.0 43.2°
Reaches altitude 10° 14:00:14 10° 228° (SW) 2,944 10.6 42.6°
Maximum altitude 14:04:46 18° 189° (S) 2,245 9.6 41.9°
Drops below altitude 10° 14:08:50 10° 149° (SSE) 2,583 9.3 41.3°
Sets 14:12:02 0° 130° (SE) 3,360 9.6 40.8°
